Date,TemperatureHighF,TemperatureAvgF,TemperatureLowF,DewpointHighF,DewpointAvgF,DewpointLowF,HumidityHigh,HumidityAvg,HumidityLow,PressureMaxIn,PressureMinIn,WindSpeedMaxMPH,WindSpeedAvgMPH,GustSpeedMaxMPH,PrecipitationSumIn
2013-1-1,39.7,36.6,27.9,-6.1,-8.1,-13.2,16,14,13,29.88,29.74,4,0,11,0.00
2013-1-2,33.1,27.8,21.9,-9.5,-12.8,-16.2,17,16,15,30.06,29.85,4,0,11,0.00
2013-1-3,34.2,26.8,22.8,-8.6,-13.3,-15.4,17,16,15,30.09,29.94,4,0,11,0.00
2013-1-4,41.2,32.7,26.1,-5.3,-9.5,-14.0,20,15,13,29.97,29.83,4,0,11,0.00
2013-1-5,46.8,34.3,25.9,3.8,-7.9,-13.2,35,16,12,30.18,29.88,4,0,11,0.00
2013-1-6,49.6,37.2,27.9,21.3,5.2,-8.9,49,28,11,30.12,29.88,4,0,11,0.00
2013-1-7,48.7,36.1,24.8,19.2,1.2,-13.2,43,25,11,30.30,29.94,5,0,11,0.00
2013-1-8,51.8,36.6,23.7,24.5,5.9,-4.9,53,32,11,30.33,30.24,4,0,12,0.00
2013-1-9,49.1,39.8,27.1,35.6,11.2,-3.6,68,35,12,30.27,30.03,6,0,12,0.00
2013-1-10,50.9,41.3,29.8,2.4,-5.2,-12.2,25,14,11,30.45,30.09,4,0,12,0.00
2013-1-11,47.3,37.7,28.0,39.1,10.7,-6.2,73,35,16,30.42,30.09,4,0,12,0.00
2013-2-7,30.2,29.8,29.3,-11.9,-12.2,-12.6,15,15,15,30.27,30.24,2,0,5,0.00
2013-2-8,36.0,33.3,27.7,29.4,17.0,-11.9,82,57,15,30.24,29.50,14,1,15,0.00
2013-2-9,33.6,26.5,18.5,27.1,12.5,-9.0,81,59,20,30.21,29.59,0,0,15,0.00
2013-2-10,39.9,23.3,9.0,3.0,-7.6,-15.0,39,26,13,30.36,30.21,0,0,2,0.00
2013-2-11,43.7,33.7,21.9,39.5,22.7,-1.5,87,66,35,30.24,29.59,0,0,9,0.00
2013-2-12,43.5,37.5,35.1,36.6,33.0,26.0,88,84,50,29.77,29.62,2,0,9,0.00
2013-2-13,45.9,39.1,34.5,7.2,-4.7,-8.9,31,15,12,29.80,29.62,4,0,6,0.00
2013-2-14,47.5,37.9,30.0,24.2,6.1,-8.6,54,31,12,29.91,29.62,5,0,6,0.00
2013-2-15,50.2,41.1,31.5,23.0,12.5,-3.3,60,36,11,29.94,29.83,6,0,6,0.00
2013-2-16,39.4,35.2,28.0,22.1,4.9,-11.9,54,31,14,29.85,29.62,5,0,8,0.00
2013-2-17,35.6,26.6,16.9,8.4,-10.9,-22.0,42,19,14,29.83,29.50,8,1,10,0.00
2013-2-18,36.7,25.4,16.9,-7.6,-14.9,-21.9,18,16,14,30.12,29.83,5,0,10,0.00
2013-2-19,47.8,35.0,21.9,29.9,-0.1,-14.9,56,24,14,30.12,29.71,9,1,13,0.00
2013-3-4,45.7,37.2,28.6,-3.3,-7.7,-13.2,15,14,12,29.77,29.65,5,1,10,0.00
2013-3-5,49.5,43.1,30.7,-2.2,-5.2,-11.4,15,13,11,29.94,29.77,4,0,10,0.00
2013-3-6,42.1,38.4,33.4,20.8,8.5,-8.7,54,30,14,29.91,29.77,17,4,17,0.00
2013-3-7,37.4,35.3,34.0,27.9,23.3,11.4,76,62,34,29.94,29.77,8,1,17,0.00
2013-3-8,38.8,36.0,33.6,32.8,28.8,9.7,81,76,31,30.06,29.85,5,0,17,0.00
2013-3-9,55.2,41.1,29.7,9.0,-0.7,-7.5,41,19,10,30.24,30.03,6,0,17,0.00
2013-3-10,50.0,37.3,25.5,24.4,7.8,-4.9,55,33,11,30.30,30.21,8,1,17,0.00
2013-3-11,53.8,46.2,39.2,40.9,22.3,7.5,68,41,16,30.24,30.03,8,1,17,0.00
2013-3-12,55.4,53.0,50.7,50.8,39.2,26.7,85,61,37,30.03,29.62,13,4,19,0.00
2013-3-21,34.9,33.2,30.9,10.9,1.9,-8.9,41,27,15,29.68,29.56,5,1,19,0.00
2013-3-22,31.5,30.9,30.0,12.1,7.6,3.8,44,37,32,29.62,29.62,0,0,19,0.00
2013-3-27,55.9,46.3,38.3,0.2,-3.8,-7.5,14,12,10,29.85,29.77,6,0,19,0.00
2013-3-28,52.9,42.8,32.9,12.6,-2.0,-7.7,36,16,11,29.97,29.83,6,0,19,0.00
2013-3-29,59.0,46.5,36.1,1.0,-3.4,-8.4,17,12,9,30.03,29.94,6,0,19,0.00
2013-3-30,59.0,41.6,29.7,20.6,-0.8,-8.9,42,19,9,30.06,29.97,4,0,19,0.00
2013-3-31,55.4,43.5,30.2,39.8,11.4,-2.0,75,34,10,30.03,29.56,10,2,19,0.00
2013-4-1,60.3,49.9,44.8,39.4,29.9,5.6,75,56,12,29.59,29.56,6,1,19,0.00
2013-4-6,51.4,44.0,40.1,-1.3,-4.5,-6.8,13,13,11,30.18,30.12,5,1,19,0.00
2013-5-4,54.0,46.7,40.1,18.1,9.7,2.5,40,23,13,30.18,30.15,5,1,10,0.00
2013-5-5,57.7,45.8,38.7,34.0,16.6,-0.7,60,35,10,30.18,30.09,6,1,11,0.00
2013-5-6,69.3,57.4,44.1,33.7,15.0,6.0,57,23,10,30.12,30.03,6,1,11,0.00
2013-5-7,72.5,59.0,44.2,48.0,28.5,8.5,72,38,9,30.06,29.97,6,1,11,0.00
2013-5-8,66.7,60.7,55.9,59.5,48.4,37.2,82,64,42,30.00,29.88,8,0,15,0.00
2013-5-9,66.6,59.4,54.5,58.3,47.3,35.9,82,66,37,29.88,29.74,0,0,15,0.00
2013-5-10,77.7,64.7,50.5,61.9,27.9,-12.9,82,37,3,29.88,29.80,3,0,15,0.00
2013-5-11,66.6,62.5,59.4,57.7,47.0,34.4,82,59,36,29.80,29.59,6,1,15,0.00
2013-5-12,73.4,62.8,51.6,60.2,23.2,-1.6,88,36,7,29.77,29.53,6,0,15,0.00
2013-5-13,51.1,45.9,39.6,-1.6,-3.9,-7.2,13,12,11,29.85,29.80,2,0,15,0.00
2013-5-19,60.1,60.1,60.1,56.2,56.2,56.2,87,87,87,30.06,30.06,0,0,4,0.00
2013-5-20,71.2,66.3,60.1,67.8,62.8,56.2,89,88,87,30.03,29.85,6,0,7,0.00
2013-5-21,71.2,71.2,71.2,67.8,67.8,67.8,89,89,89,29.85,29.74,8,1,10,0.00
2013-5-22,71.2,71.2,71.2,67.8,67.8,67.8,89,89,89,29.83,29.71,6,1,10,0.00
2013-5-23,71.2,71.2,71.2,67.8,67.8,67.8,89,89,89,29.80,29.65,11,2,12,0.00
2013-5-24,71.2,61.3,0.0,67.8,58.4,0.0,89,77,89,29.74,29.56,6,0,12,0.00
2013-5-25,0.0,0.0,0.0,0.0,0.0,0.0,0,0,100,29.80,29.71,5,0,8,0.00
2013-5-26,0.0,0.0,0.0,0.0,0.0,0.0,0,0,100,30.03,29.74,6,0,8,0.00
2013-5-27,0.0,0.0,0.0,0.0,0.0,0.0,0,0,100,30.06,29.97,6,0,8,0.00
2013-5-28,0.0,0.0,0.0,0.0,0.0,0.0,0,0,100,30.06,30.00,6,0,8,0.00
2013-5-29,0.0,0.0,0.0,0.0,0.0,0.0,0,0,100,30.00,29.88,4,0,8,0.00
2013-5-30,0.0,0.0,0.0,0.0,0.0,0.0,0,0,100,30.00,29.91,5,0,8,0.00